LGL53BK LIBD-ELLX

Flight info

Callsign LGL53BK
Flight time 1h 57m
Altitude 38000
Route PISIP L612 VIE/N0436F360 DCT RUPAX DCT VAPUP DCT BAXON DCT RESIA DCT ELMUR DCT RIPUS DCT DITON DCT HOC DCT LUL DCT GIVOR
Aircraft B737/M-SDE2E3FGHIRWXY/LB1

Departure

Time 2026-04-23 20:59
Airport Bari Karol Wojtyła International Airport (LIBD)

Arrival

Time 2026-04-23 22:56
Airport Luxembourg-Findel International Airport (ELLX)
Time Latitude Longitude Altitude Speed Heading
2026-04-23 20:49 41.13664 16.76308 137 ft 0 kts 236°
2026-04-23 20:55 41.13654 16.76304 137 ft 4 kts 191°
2026-04-23 20:55 41.13611 16.76350 138 ft 13 kts 114°
2026-04-23 20:55 41.13641 16.76475 133 ft 24 kts 71°
2026-04-23 20:55 41.13744 16.76566 127 ft 16 kts 356°
2026-04-23 20:56 41.13830 16.76640 121 ft 14 kts 70°
2026-04-23 20:56 41.13865 16.76766 117 ft 15 kts 70°
2026-04-23 20:56 41.13889 16.76852 114 ft 15 kts 70°
2026-04-23 20:56 41.13923 16.76975 114 ft 14 kts 70°
2026-04-23 20:57 41.13955 16.77093 112 ft 13 kts 70°
2026-04-23 20:57 41.13990 16.77205 109 ft 13 kts 71°
2026-04-23 20:57 41.14020 16.77315 107 ft 13 kts 67°
2026-04-23 20:57 41.14089 16.77396 103 ft 15 kts 20°
2026-04-23 20:58 41.14193 16.77403 97 ft 16 kts 328°
2026-04-23 20:58 41.14215 16.77337 99 ft 6 kts 252°
2026-04-23 20:58 41.14200 16.77286 99 ft 9 kts 249°
2026-04-23 20:58 41.14099 16.76935 113 ft 76 kts 249°
2026-04-23 20:59 41.13837 16.76005 144 ft 136 kts 250°
2026-04-23 20:59 41.13491 16.74710 557 ft 152 kts 253°
2026-04-23 20:59 41.13129 16.73375 1298 ft 157 kts 256°
2026-04-23 20:59 41.12745 16.72053 2086 ft 155 kts 257°
2026-04-23 21:00 41.12333 16.70602 2387 ft 183 kts 258°
2026-04-23 21:00 41.11852 16.68902 2712 ft 208 kts 256°
2026-04-23 21:00 41.11318 16.67044 3189 ft 220 kts 255°
2026-04-23 21:00 41.10765 16.65125 3800 ft 228 kts 255°
2026-04-23 21:01 41.10203 16.63165 4562 ft 231 kts 253°
2026-04-23 21:01 41.09625 16.61150 5320 ft 235 kts 252°
2026-04-23 21:01 41.09068 16.59108 6137 ft 237 kts 259°
2026-04-23 21:01 41.09161 16.56983 6815 ft 232 kts 300°
2026-04-23 21:02 41.10183 16.55423 7630 ft 223 kts 332°
2026-04-23 21:02 41.11617 16.54717 8441 ft 220 kts 356°
2026-04-23 21:02 41.13127 16.54905 9282 ft 219 kts 20°
2026-04-23 21:02 41.14540 16.55689 10150 ft 222 kts 24°
2026-04-23 21:03 41.15942 16.56504 10935 ft 224 kts 24°
2026-04-23 21:03 41.17374 16.57340 11760 ft 226 kts 24°
2026-04-23 21:03 41.18819 16.58179 12587 ft 228 kts 24°
2026-04-23 21:03 41.20279 16.59025 13449 ft 229 kts 24°
2026-04-23 21:04 41.21745 16.59872 14289 ft 231 kts 25°
2026-04-23 21:04 41.23232 16.60730 15010 ft 235 kts 24°
2026-04-23 21:04 41.24845 16.61292 15597 ft 251 kts
2026-04-23 21:04 41.26666 16.61425 15792 ft 279 kts
2026-04-23 21:05 41.28696 16.61568 16004 ft 305 kts
2026-04-23 21:05 41.30908 16.61735 16195 ft 331 kts
2026-04-23 21:05 41.33263 16.61920 16669 ft 345 kts
2026-04-23 21:05 41.35681 16.62115 17409 ft 351 kts
2026-04-23 21:06 41.38135 16.62318 18227 ft 355 kts
2026-04-23 21:06 41.40621 16.62529 18926 ft 360 kts
2026-04-23 21:06 41.43124 16.62744 19676 ft 362 kts
2026-04-23 21:06 41.45657 16.62963 20338 ft 367 kts
2026-04-23 21:07 41.48190 16.63184 20996 ft 372 kts
2026-04-23 21:07 41.50801 16.63238 21631 ft 382 kts 356°
2026-04-23 21:07 41.53371 16.62113 22278 ft 398 kts 335°
2026-04-23 21:07 41.55607 16.59863 22952 ft 411 kts 317°
2026-04-23 21:08 41.57512 16.56983 23610 ft 416 kts 314°
2026-04-23 21:08 41.59412 16.54036 24126 ft 421 kts 314°
2026-04-23 21:08 41.61326 16.51054 24709 ft 423 kts 314°
2026-04-23 21:08 41.63249 16.48069 25332 ft 424 kts 314°
2026-04-23 21:09 41.65161 16.45118 25908 ft 426 kts 315°
2026-04-23 21:09 41.67113 16.42117 26463 ft 429 kts 315°
2026-04-23 21:09 41.69080 16.39104 27005 ft 431 kts 315°
2026-04-23 21:09 41.71057 16.36076 27537 ft 434 kts 315°
2026-04-23 21:10 41.73047 16.33027 28046 ft 436 kts 314°
2026-04-23 21:10 41.75046 16.29961 28568 ft 438 kts 314°
2026-04-23 21:10 41.77055 16.26877 29060 ft 440 kts 314°
2026-04-23 21:10 41.79046 16.23817 29528 ft 443 kts 314°
2026-04-23 21:11 41.81073 16.20697 29999 ft 445 kts 314°
2026-04-23 21:11 41.83111 16.17556 30419 ft 447 kts 314°
2026-04-23 21:11 41.85156 16.14401 30791 ft 449 kts 314°
2026-04-23 21:11 41.87213 16.11225 31150 ft 451 kts 314°
2026-04-23 21:12 41.89270 16.08046 31603 ft 450 kts 314°
2026-04-23 21:12 41.91314 16.04882 32171 ft 447 kts 315°
2026-04-23 21:12 41.93365 16.01774 32676 ft 444 kts 315°
2026-04-23 21:12 41.95440 15.98710 33094 ft 443 kts 316°
2026-04-23 21:13 41.97493 15.95707 33537 ft 441 kts 316°
2026-04-23 21:13 41.99567 15.92670 33970 ft 441 kts 316°
2026-04-23 21:13 42.01633 15.89634 34328 ft 440 kts 316°
2026-04-23 21:13 42.03699 15.86588 34637 ft 440 kts 316°
2026-04-23 21:14 42.05759 15.83539 34918 ft 441 kts 316°
2026-04-23 21:14 42.07822 15.80478 35212 ft 441 kts 316°
2026-04-23 21:14 42.09878 15.77423 35505 ft 441 kts 316°
2026-04-23 21:14 42.11937 15.74360 35781 ft 441 kts 316°
2026-04-23 21:15 42.13995 15.71295 36061 ft 441 kts 316°
2026-04-23 21:15 42.16019 15.68278 36353 ft 440 kts 316°
2026-04-23 21:15 42.18072 15.65213 36653 ft 440 kts 316°
2026-04-23 21:15 42.20121 15.62152 36925 ft 439 kts 316°
2026-04-23 21:16 42.22159 15.59104 37265 ft 437 kts 316°
2026-04-23 21:16 42.24194 15.56060 37523 ft 437 kts 316°
2026-04-23 21:16 42.26228 15.53014 37739 ft 438 kts 316°
2026-04-23 21:16 42.28331 15.50050 37962 ft 434 kts 323°
2026-04-23 21:17 42.30762 15.47695 38159 ft 429 kts 334°
2026-04-23 21:17 42.33455 15.45972 38131 ft 428 kts 344°
2026-04-23 21:17 42.39128 15.43943 38130 ft 424 kts 349°
2026-04-23 21:18 42.44807 15.42034 38134 ft 418 kts 349°
2026-04-23 21:18 42.50438 15.40093 38138 ft 416 kts 349°
2026-04-23 21:19 42.56034 15.38138 38144 ft 415 kts 348°
2026-04-23 21:19 42.61579 15.36190 38134 ft 414 kts 348°
2026-04-23 21:20 42.67160 15.34226 38153 ft 415 kts 348°
2026-04-23 21:20 42.72764 15.32251 38152 ft 417 kts 348°
2026-04-23 21:21 42.78399 15.30262 38154 ft 420 kts 348°
2026-04-23 21:21 42.84028 15.28270 38134 ft 422 kts 348°
2026-04-23 21:22 42.89722 15.26251 38149 ft 424 kts 348°
2026-04-23 21:22 42.95440 15.24220 38148 ft 425 kts 348°
2026-04-23 21:23 43.01171 15.22181 38130 ft 426 kts 347°
2026-04-23 21:23 43.06587 15.19007 38160 ft 431 kts 330°
2026-04-23 21:24 43.11247 15.13773 38164 ft 435 kts 320°
2026-04-23 21:24 43.15690 15.08140 38156 ft 435 kts 320°
2026-04-23 21:25 43.20142 15.02518 38147 ft 435 kts 321°
2026-04-23 21:25 43.24570 14.96959 38149 ft 434 kts 321°
2026-04-23 21:26 43.29024 14.91376 38142 ft 433 kts 321°
2026-04-23 21:26 43.33468 14.85796 38149 ft 433 kts 321°
2026-04-23 21:27 43.37904 14.80215 38152 ft 432 kts 321°
2026-04-23 21:27 43.42305 14.74667 38152 ft 432 kts 321°
2026-04-23 21:28 43.46726 14.69080 38151 ft 432 kts 321°
2026-04-23 21:28 43.51148 14.63481 38155 ft 432 kts 321°
2026-04-23 21:29 43.55569 14.57872 38154 ft 432 kts 320°
2026-04-23 21:29 43.59987 14.52254 38155 ft 432 kts 320°
2026-04-23 21:30 43.64375 14.46663 38158 ft 432 kts 320°
2026-04-23 21:30 43.68790 14.41025 38158 ft 432 kts 320°
2026-04-23 21:31 43.73206 14.35375 38152 ft 433 kts 320°
2026-04-23 21:31 43.77622 14.29712 38160 ft 433 kts 320°
2026-04-23 21:32 43.82011 14.24073 38158 ft 433 kts 320°
2026-04-23 21:32 43.86426 14.18387 38152 ft 433 kts 320°
2026-04-23 21:33 43.90843 14.12688 38161 ft 434 kts 320°
2026-04-23 21:33 43.95254 14.06984 38164 ft 434 kts 320°
2026-04-23 21:34 43.99634 14.01308 38161 ft 434 kts 320°
2026-04-23 21:34 44.04044 13.95581 38161 ft 434 kts 320°
2026-04-23 21:35 44.08449 13.89848 38161 ft 434 kts 320°
2026-04-23 21:35 44.12850 13.84107 38152 ft 434 kts 320°
2026-04-23 21:36 44.19412 13.75526 38159 ft 433 kts 320°
2026-04-23 21:37 44.23802 13.69769 38160 ft 433 kts 320°
2026-04-23 21:37 44.28187 13.64008 38160 ft 433 kts 320°
2026-04-23 21:38 44.32574 13.58230 38161 ft 434 kts 320°
2026-04-23 21:38 44.36928 13.52483 38152 ft 434 kts 320°
2026-04-23 21:39 44.41312 13.46684 38156 ft 434 kts 320°
2026-04-23 21:39 44.45453 13.40494 38166 ft 437 kts 315°
2026-04-23 21:40 44.49470 13.34108 38158 ft 437 kts 315°
2026-04-23 21:40 44.53469 13.27750 38156 ft 438 kts 315°
2026-04-23 21:41 44.57508 13.21364 38155 ft 438 kts 315°
2026-04-23 21:41 44.61553 13.14981 38160 ft 438 kts 315°
2026-04-23 21:42 44.65603 13.08582 38150 ft 438 kts 315°
2026-04-23 21:42 44.69649 13.02173 38156 ft 439 kts 315°
2026-04-23 21:43 44.73667 12.95794 38137 ft 439 kts 315°
2026-04-23 21:43 44.77709 12.89362 38150 ft 439 kts 315°
2026-04-23 21:44 44.81746 12.82924 38151 ft 439 kts 315°
2026-04-23 21:44 44.85781 12.76473 38149 ft 438 kts 315°
2026-04-23 21:45 44.89783 12.70060 38141 ft 439 kts 315°
2026-04-23 21:45 44.93807 12.63598 38134 ft 438 kts 315°
2026-04-23 21:46 44.97829 12.57123 38149 ft 438 kts 315°
2026-04-23 21:46 45.01849 12.50638 38134 ft 439 kts 315°
2026-04-23 21:47 45.05837 12.44188 38137 ft 439 kts 315°
2026-04-23 21:47 45.09853 12.37679 38136 ft 439 kts 315°
2026-04-23 21:48 45.13865 12.31160 38131 ft 439 kts 315°
2026-04-23 21:48 45.17876 12.24629 38136 ft 439 kts 315°
2026-04-23 21:49 45.21887 12.18082 38122 ft 440 kts 315°
2026-04-23 21:49 45.25870 12.11566 38127 ft 440 kts 315°
2026-04-23 21:50 45.29884 12.04983 38100 ft 441 kts 315°
2026-04-23 21:50 45.33893 11.98392 38119 ft 441 kts 315°
2026-04-23 21:51 45.37903 11.91785 38127 ft 441 kts 315°
2026-04-23 21:51 45.41887 11.85205 38124 ft 442 kts 315°
2026-04-23 21:52 45.45900 11.78560 38123 ft 443 kts 315°
2026-04-23 21:52 45.49912 11.71904 38105 ft 443 kts 315°
2026-04-23 21:53 45.53921 11.65233 38122 ft 443 kts 315°
2026-04-23 21:53 45.57905 11.58591 38124 ft 443 kts 315°
2026-04-23 21:54 45.61912 11.51894 38123 ft 444 kts 315°
2026-04-23 21:54 45.65916 11.45185 38122 ft 444 kts 315°
2026-04-23 21:55 45.69917 11.38464 38128 ft 444 kts 315°
2026-04-23 21:55 45.73913 11.31737 38120 ft 443 kts 315°
2026-04-23 21:56 45.77874 11.25052 38137 ft 443 kts 315°
2026-04-23 21:56 45.81858 11.18312 38142 ft 444 kts 315°
2026-04-23 21:57 45.85848 11.11546 38123 ft 444 kts 315°
2026-04-23 21:57 45.89834 11.04770 38130 ft 444 kts 315°
2026-04-23 21:58 45.93788 10.98030 38145 ft 444 kts 315°
2026-04-23 21:58 45.97764 10.91238 38136 ft 444 kts 315°
2026-04-23 21:59 46.01735 10.84437 38156 ft 444 kts 315°
2026-04-23 21:59 46.05711 10.77612 38156 ft 445 kts 315°
2026-04-23 22:00 46.11642 10.67401 38139 ft 445 kts 315°
2026-04-23 22:00 46.15606 10.60553 38162 ft 446 kts 314°
2026-04-23 22:01 46.19585 10.53662 38170 ft 447 kts 314°
2026-04-23 22:01 46.23567 10.46750 38145 ft 447 kts 314°
2026-04-23 22:02 46.27507 10.39892 38165 ft 445 kts 314°
2026-04-23 22:02 46.31453 10.33008 38189 ft 446 kts 314°
2026-04-23 22:03 46.35412 10.26084 38202 ft 446 kts 314°
2026-04-23 22:03 46.39366 10.19153 38189 ft 446 kts 314°
2026-04-23 22:04 46.43289 10.12254 38258 ft 447 kts 314°
2026-04-23 22:04 46.47245 10.05283 38268 ft 448 kts 314°
2026-04-23 22:05 46.51287 9.98416 38306 ft 447 kts 316°
2026-04-23 22:05 46.55435 9.91687 38273 ft 447 kts 316°
2026-04-23 22:06 46.59574 9.84943 38281 ft 447 kts 316°
2026-04-23 22:06 46.63669 9.78205 38282 ft 448 kts 315°
2026-04-23 22:07 46.67785 9.71396 38264 ft 447 kts 315°
2026-04-23 22:07 46.71886 9.64587 38265 ft 447 kts 315°
2026-04-23 22:08 46.75982 9.57773 38247 ft 447 kts 315°
2026-04-23 22:08 46.80046 9.50997 38253 ft 447 kts 315°
2026-04-23 22:09 46.84148 9.44142 38255 ft 449 kts 315°
2026-04-23 22:09 46.88264 9.37241 38241 ft 452 kts 314°
2026-04-23 22:10 46.92392 9.30305 38250 ft 453 kts 314°
2026-04-23 22:10 46.96496 9.23391 38256 ft 453 kts 314°
2026-04-23 22:11 47.00628 9.16413 38244 ft 453 kts 314°
2026-04-23 22:11 47.04754 9.09426 38229 ft 453 kts 314°
2026-04-23 22:12 47.08856 9.02459 38261 ft 451 kts 313°
2026-04-23 22:12 47.12932 8.95528 38262 ft 452 kts 313°
2026-04-23 22:13 47.16505 8.87930 38270 ft 456 kts 296°
2026-04-23 22:13 47.18739 8.79180 38268 ft 458 kts 291°
2026-04-23 22:14 47.20892 8.70357 38260 ft 459 kts 291°
2026-04-23 22:14 47.23097 8.61552 38266 ft 458 kts 291°
2026-04-23 22:15 47.25296 8.52818 38261 ft 458 kts 291°
2026-04-23 22:15 47.27504 8.44028 38261 ft 457 kts 291°
2026-04-23 22:16 47.29712 8.35253 38263 ft 457 kts 291°
2026-04-23 22:16 47.31911 8.26474 38268 ft 456 kts 291°
2026-04-23 22:17 47.34084 8.17760 38257 ft 456 kts 291°
2026-04-23 22:17 47.36262 8.08994 38265 ft 455 kts 291°
2026-04-23 22:18 47.38429 8.00236 38267 ft 454 kts 291°
2026-04-23 22:18 47.40591 7.91470 38270 ft 454 kts 291°
2026-04-23 22:19 47.42740 7.82719 38268 ft 454 kts 291°
2026-04-23 22:19 47.44870 7.74015 38262 ft 453 kts 291°
2026-04-23 22:20 47.46979 7.65239 38269 ft 453 kts 288°
2026-04-23 22:20 47.48586 7.56226 38271 ft 454 kts 284°
2026-04-23 22:21 47.50002 7.47133 38264 ft 453 kts 283°
2026-04-23 22:21 47.51438 7.38122 38262 ft 453 kts 284°
2026-04-23 22:22 47.52920 7.29060 38269 ft 453 kts 284°
2026-04-23 22:22 47.54409 7.19990 38262 ft 453 kts 284°
2026-04-23 22:23 47.55890 7.10923 38261 ft 453 kts 284°
2026-04-23 22:23 47.57365 7.01840 38265 ft 454 kts 284°
2026-04-23 22:24 47.58821 6.92817 38268 ft 454 kts 284°
2026-04-23 22:24 47.60281 6.83717 38266 ft 454 kts 283°
2026-04-23 22:25 47.61735 6.74606 38267 ft 454 kts 283°
2026-04-23 22:25 47.63183 6.65483 38259 ft 455 kts 283°
2026-04-23 22:26 47.64614 6.56414 38263 ft 455 kts 283°
2026-04-23 22:26 47.66052 6.47261 38246 ft 456 kts 283°
2026-04-23 22:27 47.67859 6.38295 38204 ft 454 kts 303°
2026-04-23 22:27 47.69854 6.34733 38258 ft 449 kts 321°
2026-04-23 22:27 47.72435 6.32194 38247 ft 444 kts 338°
2026-04-23 22:28 47.75329 6.30662 38211 ft 441 kts 352°
2026-04-23 22:28 47.78347 6.30302 38272 ft 434 kts
2026-04-23 22:28 47.84354 6.30886 38261 ft 437 kts
2026-04-23 22:29 47.90433 6.31598 38266 ft 440 kts
2026-04-23 22:29 47.96551 6.32251 38267 ft 442 kts
2026-04-23 22:30 48.02703 6.32862 38267 ft 444 kts
2026-04-23 22:30 48.08830 6.33457 38273 ft 444 kts
2026-04-23 22:31 48.15025 6.34063 37659 ft 450 kts
2026-04-23 22:31 48.18140 6.34367 37097 ft 447 kts
2026-04-23 22:31 48.21243 6.34670 36480 ft 446 kts
2026-04-23 22:32 48.24342 6.34974 35827 ft 446 kts
2026-04-23 22:32 48.27432 6.35278 35308 ft 444 kts
2026-04-23 22:32 48.30498 6.35579 34827 ft 440 kts
2026-04-23 22:32 48.33510 6.35875 34350 ft 438 kts
2026-04-23 22:33 48.36543 6.36175 33798 ft 436 kts
2026-04-23 22:33 48.39557 6.36474 33302 ft 432 kts
2026-04-23 22:33 48.42547 6.36770 32828 ft 429 kts
2026-04-23 22:33 48.45512 6.37063 32360 ft 425 kts
2026-04-23 22:34 48.48453 6.37356 31896 ft 422 kts
2026-04-23 22:34 48.51373 6.37647 31446 ft 419 kts
2026-04-23 22:34 48.54272 6.37936 31015 ft 416 kts
2026-04-23 22:34 48.57151 6.38224 30575 ft 414 kts
2026-04-23 22:35 48.59976 6.38506 30102 ft 411 kts
2026-04-23 22:35 48.62819 6.38790 29594 ft 407 kts
2026-04-23 22:35 48.65633 6.39071 29107 ft 404 kts
2026-04-23 22:35 48.68429 6.39352 28474 ft 403 kts
2026-04-23 22:36 48.71219 6.39636 27990 ft 399 kts
2026-04-23 22:36 48.73978 6.39916 27496 ft 396 kts
2026-04-23 22:36 48.76711 6.40194 27041 ft 392 kts
2026-04-23 22:36 48.79423 6.40471 26581 ft 388 kts
2026-04-23 22:37 48.82106 6.40745 26132 ft 385 kts
2026-04-23 22:37 48.84729 6.41013 25690 ft 381 kts
2026-04-23 22:37 48.87364 6.41283 25250 ft 378 kts
2026-04-23 22:37 48.89980 6.41551 24811 ft 375 kts
2026-04-23 22:38 48.92575 6.41817 24372 ft 372 kts
2026-04-23 22:38 48.95154 6.42082 23930 ft 370 kts
2026-04-23 22:38 48.97710 6.42346 23426 ft 367 kts
2026-04-23 22:38 49.00252 6.42608 22940 ft 364 kts
2026-04-23 22:39 49.02763 6.42866 22501 ft 360 kts
2026-04-23 22:39 49.05243 6.43122 22048 ft 356 kts
2026-04-23 22:39 49.07701 6.43375 21643 ft 352 kts
2026-04-23 22:39 49.10133 6.43627 21171 ft 348 kts
2026-04-23 22:40 49.12506 6.43872 20753 ft 345 kts
2026-04-23 22:40 49.14893 6.44120 20325 ft 342 kts
2026-04-23 22:40 49.19599 6.44608 19486 ft 336 kts
2026-04-23 22:41 49.21932 6.44684 19051 ft 336 kts 354°
2026-04-23 22:41 49.24122 6.43553 18838 ft 330 kts 337°
2026-04-23 22:41 49.26208 6.42093 18362 ft 329 kts 338°
2026-04-23 22:41 49.28282 6.40648 17928 ft 326 kts 338°
2026-04-23 22:42 49.30318 6.39238 17507 ft 324 kts 338°
2026-04-23 22:42 49.32363 6.37828 17088 ft 321 kts 338°
2026-04-23 22:42 49.34390 6.36433 16673 ft 318 kts 338°
2026-04-23 22:42 49.36402 6.35049 16259 ft 316 kts 338°
2026-04-23 22:43 49.38399 6.33686 15846 ft 313 kts 340°
2026-04-23 22:43 49.40469 6.32746 15436 ft 308 kts 351°
2026-04-23 22:43 49.42569 6.32154 15042 ft 306 kts 352°
2026-04-23 22:43 49.44655 6.31559 14639 ft 304 kts 351°
2026-04-23 22:44 49.46699 6.30935 14234 ft 303 kts 350°
2026-04-23 22:44 49.48759 6.30262 13770 ft 302 kts 346°
2026-04-23 22:44 49.50609 6.28793 13476 ft 300 kts 320°
2026-04-23 22:44 49.51874 6.26289 13135 ft 299 kts 299°
2026-04-23 22:45 49.52493 6.23225 12666 ft 304 kts 276°
2026-04-23 22:45 49.52322 6.20007 12452 ft 304 kts 257°
2026-04-23 22:45 49.51462 6.17025 12231 ft 306 kts 241°
2026-04-23 22:45 49.50406 6.14224 11974 ft 308 kts 241°
2026-04-23 22:46 49.49336 6.11364 11725 ft 309 kts 241°
2026-04-23 22:46 49.48283 6.08487 11490 ft 306 kts 244°
2026-04-23 22:46 49.47735 6.05445 11357 ft 289 kts 274°
2026-04-23 22:46 49.48284 6.02660 11228 ft 264 kts 308°
2026-04-23 22:47 49.49487 6.00687 11136 ft 244 kts 318°
2026-04-23 22:47 49.50757 5.99093 10956 ft 230 kts 331°
2026-04-23 22:47 49.52219 5.98261 10567 ft 224 kts
2026-04-23 22:47 49.53704 5.98799 10156 ft 220 kts 30°
2026-04-23 22:48 49.54861 6.00297 9713 ft 219 kts 54°
2026-04-23 22:48 49.55661 6.02244 9312 ft 217 kts 51°
2026-04-23 22:48 49.56867 6.03580 8900 ft 215 kts 15°
2026-04-23 22:48 49.58336 6.03585 8494 ft 217 kts 342°
2026-04-23 22:49 49.59568 6.02267 8070 ft 220 kts 307°
2026-04-23 22:49 49.60203 6.00133 7700 ft 220 kts 290°
2026-04-23 22:49 49.60695 5.97896 7305 ft 221 kts 291°
2026-04-23 22:49 49.61077 5.95611 6920 ft 222 kts 272°
2026-04-23 22:50 49.60707 5.93327 6513 ft 223 kts 237°
2026-04-23 22:50 49.59577 5.91809 6305 ft 210 kts 200°
2026-04-23 22:50 49.58214 5.91558 6131 ft 198 kts 172°
2026-04-23 22:50 49.56850 5.91812 5769 ft 198 kts 170°
2026-04-23 22:51 49.55516 5.92284 5400 ft 195 kts 148°
2026-04-23 22:51 49.54622 5.93714 5066 ft 180 kts 120°
2026-04-23 22:51 49.54033 5.95400 4548 ft 178 kts 107°
2026-04-23 22:51 49.53975 5.97229 4103 ft 168 kts 66°
2026-04-23 22:52 49.54457 5.98774 3965 ft 156 kts 64°
2026-04-23 22:52 49.54922 6.00200 3848 ft 139 kts 61°
2026-04-23 22:52 49.55372 6.01468 3626 ft 131 kts 61°
2026-04-23 22:52 49.55811 6.02681 3485 ft 131 kts 60°
2026-04-23 22:53 49.56256 6.03897 3313 ft 130 kts 59°
2026-04-23 22:53 49.56700 6.05102 3144 ft 128 kts 59°
2026-04-23 22:53 49.57134 6.06289 2974 ft 126 kts 59°
2026-04-23 22:53 49.57568 6.07442 2916 ft 126 kts 59°
2026-04-23 22:54 49.58008 6.08625 2754 ft 126 kts 59°
2026-04-23 22:54 49.58438 6.09786 2566 ft 122 kts 58°
2026-04-23 22:54 49.58856 6.10919 2405 ft 122 kts 58°
2026-04-23 22:54 49.59274 6.12046 2237 ft 123 kts 58°
2026-04-23 22:55 49.59696 6.13191 2069 ft 124 kts 58°
2026-04-23 22:55 49.60129 6.14363 1886 ft 128 kts 58°
2026-04-23 22:55 49.60572 6.15558 1706 ft 129 kts 59°
2026-04-23 22:55 49.61019 6.16768 1519 ft 130 kts 59°
2026-04-23 22:56 49.61463 6.17967 1376 ft 128 kts 57°
2026-04-23 22:56 49.61907 6.19172 1231 ft 130 kts 59°
2026-04-23 22:56 49.62327 6.20299 1211 ft 106 kts 60°
2026-04-23 22:56 49.62594 6.20988 1215 ft 31 kts 51°
2026-04-23 22:57 49.62763 6.21193 1206 ft 31 kts 33°
2026-04-23 22:57 49.62920 6.21333 1197 ft 13 kts 16°
2026-04-23 22:57 49.62991 6.21404 1196 ft 12 kts 44°
2026-04-23 22:57 49.63034 6.21511 1196 ft 12 kts 66°
2026-04-23 22:58 49.63069 6.21623 1196 ft 11 kts 60°
2026-04-23 22:58 49.63134 6.21612 1195 ft 12 kts 324°
2026-04-23 22:58 49.63144 6.21583 1195 ft 3 kts 276°
2026-04-23 22:58 49.63142 6.21579 1195 ft 0 kts 248°